| time (UTC) | temp F | wind direction | speed MPH | gust MPH | rain 1hr in | rain 24hr in | rain mn in | humidity % | barometer mb |
| 20260905234617 | 76 | 106 | 4.0 | 7.0 | 0.00 | 0.00 | 0.00 | 79 | 1015.6 |
| 20260905234117 | 76 | 88 | 3.0 | 7.0 | 0.00 | 0.00 | 0.00 | 79 | 1015.6 |
| 20260905233616 | 76 | 91 | 4.0 | 9.0 | 0.00 | 0.00 | 0.00 | 79 | 1015.7 |
| 20260905233116 | 76 | 96 | 5.0 | 9.0 | 0.00 | 0.00 | 0.00 | 79 | 1015.7 |
| 20260905232616 | 76 | 96 | 5.0 | 10.0 | 0.00 | 0.00 | 0.00 | 78 | 1015.7 |
| 20260905232114 | 76 | 64 | 5.0 | 10.0 | 0.00 | 0.00 | 0.00 | 78 | 1015.7 |
| 20260905231613 | 76 | 86 | 5.0 | 11.0 | 0.00 | 0.00 | 0.00 | 79 | 1015.7 |
| 20260905231346 | 76 | 127 | 5.0 | 11.0 | 0.00 | 0.00 | 0.00 | 79 | 1015.7 |
| 20260905230612 | 76 | 82 | 5.0 | 9.0 | 0.00 | 0.00 | 0.00 | 79 | 1016.0 |
| 20260905230113 | 76 | 121 | 6.0 | 10.0 | 0.00 | 0.00 | 0.00 | 78 | 1016.1 |
| 20260905225607 | 76 | 91 | 7.0 | 10.0 | 0.00 | 0.00 | 0.00 | 79 | 1016.1 |
| 20260905225331 | 76 | 79 | 7.0 | 11.0 | 0.00 | 0.00 | 0.00 | 79 | 1016.1 |
| 20260905224555 | 76 | 85 | 6.0 | 11.0 | 0.00 | 0.00 | 0.00 | 79 | 1016.1 |
| 20260905224048 | 76 | 72 | 5.0 | 9.0 | 0.00 | 0.00 | 0.00 | 79 | 1016.2 |
| 20260905223543 | 76 | 86 | 5.0 | 9.0 | 0.00 | 0.00 | 0.00 | 80 | 1016.3 |
| 20260905223037 | 76 | 85 | 7.0 | 10.0 | 0.00 | 0.00 | 0.00 | 80 | 1016.3 |
| 20260905222531 | 76 | 90 | 6.0 | 10.0 | 0.00 | 0.00 | 0.00 | 80 | 1016.4 |
| 20260905222024 | 76 | 112 | 6.0 | 11.0 | 0.00 | 0.00 | 0.00 | 80 | 1016.4 |
| 20260905221519 | 76 | 72 | 5.0 | 11.0 | 0.00 | 0.00 | 0.00 | 82 | 1016.5 |
| 20260905221013 | 76 | 86 | 5.0 | 8.0 | 0.00 | 0.00 | 0.00 | 82 | 1016.7 |
| 20260905220507 | 75 | 53 | 5.0 | 9.0 | 0.00 | 0.00 | 0.00 | 81 | 1016.9 |
| 20260905220001 | 75 | 79 | 4.0 | 9.0 | 0.00 | 0.00 | 0.00 | 82 | 1017.0 |
| 20260905215455 | 75 | 58 | 2.0 | 8.0 | 0.00 | 0.00 | 0.00 | 82 | 1016.9 |
| 20260905215220 | 75 | 65 | 3.0 | 7.0 | 0.00 | 0.00 | 0.00 | 83 | 1016.9 |
| 20260905214443 | 75 | 168 | 4.0 | 11.0 | 0.00 | 0.00 | 0.00 | 82 | 1016.9 |
| 20260905213936 | 75 | 48 | 4.0 | 11.0 | 0.00 | 0.00 | 0.00 | 84 | 1017.0 |
| 20260905213701 | 74 | 72 | 3.0 | 7.0 | 0.00 | 0.00 | 0.00 | 84 | 1017.1 |
| 20260905212924 | 74 | 56 | 4.0 | 8.0 | 0.00 | 0.00 | 0.00 | 84 | 1017.1 |
| 20260905212419 | 74 | 62 | 4.0 | 8.0 | 0.00 | 0.00 | 0.00 | 83 | 1017.2 |
| 20260905211913 | 74 | 72 | 4.0 | 8.0 | 0.00 | 0.00 | 0.00 | 84 | 1017.5 |
| 20260905211407 | 74 | 66 | 3.0 | 8.0 | 0.00 | 0.00 | 0.00 | 84 | 1017.5 |
| 20260905210901 | 73 | 79 | 3.0 | 8.0 | 0.00 | 0.00 | 0.00 | 84 | 1017.5 |
| 20260905210355 | 73 | 56 | 5.0 | 10.0 | 0.00 | 0.00 | 0.00 | 84 | 1017.6 |
| 20260905205848 | 73 | 77 | 4.0 | 10.0 | 0.00 | 0.00 | 0.00 | 86 | 1017.6 |
| 20260905205343 | 73 | 60 | 3.0 | 8.0 | 0.00 | 0.00 | 0.00 | 85 | 1017.6 |
| 20260905204836 | 73 | 79 | 4.0 | 7.0 | 0.00 | 0.00 | 0.00 | 85 | 1017.6 |
| 20260905204603 | 73 | 77 | 4.0 | 7.0 | 0.00 | 0.00 | 0.00 | 85 | 1017.7 |
| 20260905203824 | 73 | 68 | 3.0 | 6.0 | 0.00 | 0.00 | 0.00 | 86 | 1017.9 |
| 20260905203319 | 73 | 87 | 3.0 | 6.0 | 0.00 | 0.00 | 0.00 | 86 | 1018.0 |
| 20260905202813 | 73 | 108 | 3.0 | 6.0 | 0.00 | 0.00 | 0.00 | 85 | 1018.0 |
| 20260905202307 | 73 | 77 | 2.0 | 5.0 | 0.00 | 0.00 | 0.00 | 84 | 1018.1 |
| 20260905201801 | 73 | 133 | 2.0 | 5.0 | 0.00 | 0.00 | 0.00 | 84 | 1018.1 |
| 20260905201527 | 74 | 87 | 0.0 | 3.0 | 0.00 | 0.00 | 0.00 | 84 | 1018.2 |
| 20260905200749 | 73 | 131 | 0.0 | 4.0 | 0.00 | 0.00 | 0.00 | 85 | 1018.1 |
| 20260905200243 | 73 | 155 | 1.0 | 5.0 | 0.00 | 0.00 | 0.00 | 85 | 1018.3 |
| 20260905200007 | 73 | 113 | 1.0 | 5.0 | 0.00 | 0.00 | 0.00 | 85 | 1018.4 |
| 20260905195231 | 73 | 84 | 1.0 | 4.0 | 0.00 | 0.00 | 0.00 | 84 | 1018.4 |
| 20260905194725 | 73 | 91 | 0.0 | 4.0 | 0.00 | 0.00 | 0.00 | 84 | 1018.5 |
| 20260905194451 | 73 | 97 | 0.0 | 1.0 | 0.00 | 0.00 | 0.00 | 87 | 1018.5 |
| 20260905193713 | 73 | 112 | 0.0 | 3.0 | 0.00 | 0.00 | 0.00 | 86 | 1018.6 |
| 20260905193437 | 72 | 247 | 0.0 | 4.0 | 0.00 | 0.00 | 0.00 | 89 | 1018.6 |
| 20260905192701 | 72 | 122 | 1.0 | 5.0 | 0.00 | 0.00 | 0.00 | 87 | 1018.6 |
| 20260905192155 | 72 | 110 | 2.0 | 6.0 | 0.00 | 0.00 | 0.00 | 88 | 1018.6 |
| 20260905191649 | 71 | 101 | 2.0 | 6.0 | 0.00 | 0.00 | 0.00 | 87 | 1018.5 |
| 20260905191143 | 71 | 147 | 1.0 | 5.0 | 0.00 | 0.00 | 0.00 | 88 | 1018.6 |
| 20260905190909 | 71 | 82 | 2.0 | 6.0 | 0.00 | 0.00 | 0.00 | 88 | 1018.5 |
| 20260905190131 | 71 | 89 | 2.0 | 6.0 | 0.00 | 0.00 | 0.00 | 88 | 1018.4 |
| 20260905185856 | 71 | 84 | 1.0 | 4.0 | 0.00 | 0.00 | 0.00 | 88 | 1018.4 |
| 20260905185122 | 71 | 89 | 1.0 | 4.0 | 0.00 | 0.00 | 0.00 | 89 | 1018.4 |
| 20260905184613 | 71 | 119 | 2.0 | 5.0 | 0.00 | 0.00 | 0.00 | 89 | 1018.4 |
| 20260905184107 | 71 | 86 | 1.0 | 6.0 | 0.00 | 0.00 | 0.00 | 88 | 1018.3 |
| 20260905183601 | 71 | 124 | 2.0 | 7.0 | 0.00 | 0.00 | 0.00 | 89 | 1018.2 |
| 20260905183054 | 71 | 83 | 2.0 | 6.0 | 0.00 | 0.00 | 0.00 | 89 | 1018.1 |
| 20260905182824 | 71 | 101 | 3.0 | 8.0 | 0.00 | 0.00 | 0.00 | 89 | 1018.1 |
| 20260905182059 | 71 | 86 | 3.0 | 6.0 | 0.00 | 0.00 | 0.00 | 89 | 1018.0 |
| 20260905182055 | 71 | 118 | 4.0 | 8.0 | 0.00 | 0.00 | 0.00 | 89 | 1018.1 |
| 20260905181053 | 71 | 120 | 3.0 | 6.0 | 0.00 | 0.00 | 0.00 | 89 | 1018.2 |
| 20260905180553 | 71 | 70 | 3.0 | 8.0 | 0.00 | 0.00 | 0.00 | 90 | 1018.1 |
| 20260905180051 | 71 | 107 | 3.0 | 8.0 | 0.00 | 0.00 | 0.00 | 89 | 1018.2 |
| 20260905175551 | 70 | 89 | 4.0 | 8.0 | 0.00 | 0.00 | 0.00 | 90 | 1018.2 |
| 20260905175049 | 70 | 83 | 4.0 | 7.0 | 0.00 | 0.00 | 0.00 | 91 | 1018.3 |
| 20260905174548 | 70 | 94 | 3.0 | 7.0 | 0.00 | 0.00 | 0.00 | 92 | 1018.3 |
| 20260905174047 | 69 | 58 | 1.0 | 4.0 | 0.00 | 0.00 | 0.00 | 92 | 1018.5 |
| 20260905173549 | 69 | 74 | 2.0 | 6.0 | 0.00 | 0.00 | 0.00 | 91 | 1018.7 |
| 20260905173047 | 69 | 99 | 1.0 | 6.0 | 0.00 | 0.00 | 0.00 | 91 | 1018.7 |
| 20260905172548 | 69 | 91 | 0.0 | 1.0 | 0.00 | 0.00 | 0.00 | 91 | 1018.8 |
| 20260905172318 | 69 | 84 | 0.0 | 3.0 | 0.00 | 0.00 | 0.00 | 92 | 1018.8 |
| 20260905171547 | 69 | 93 | 0.0 | 3.0 | 0.00 | 0.00 | 0.00 | 91 | 1018.8 |
| 20260905171049 | 69 | 82 | 0.0 | 3.0 | 0.00 | 0.00 | 0.00 | 92 | 1018.8 |
| 20260905170549 | 69 | 70 | 0.0 | 3.0 | 0.00 | 0.00 | 0.00 | 91 | 1018.7 |
| 20260905165540 | 69 | 29 | 0.0 | 2.0 | 0.00 | 0.00 | 0.00 | 92 | 1019.0 |
| 20260905165310 | 69 | 17 | 0.0 | 1.0 | 0.00 | 0.00 | 0.00 | 93 | 1019.1 |
| 20260905164542 | 69 | 38 | 0.0 | 0.0 | 0.00 | 0.00 | 0.00 | 92 | 1019.1 |
| 20260905164041 | 68 | 4 | 0.0 | 0.0 | 0.00 | 0.00 | 0.00 | 93 | 1019.2 |
| 20260905163540 | 68 | 39 | 0.0 | 0.0 | 0.00 | 0.00 | 0.00 | 93 | 1019.2 |
| 20260905163045 | 68 | 53 | 0.0 | 0.0 | 0.00 | 0.00 | 0.00 | 94 | 1019.2 |
| 20260905163040 | 68 | 41 | 0.0 | 0.0 | 0.00 | 0.00 | 0.00 | 93 | 1019.2 |
| 20260905162041 | 67 | 53 | 0.0 | 1.0 | 0.00 | 0.00 | 0.00 | 95 | 1019.2 |
| 20260905161540 | 67 | 53 | 0.0 | 1.0 | 0.00 | 0.00 | 0.00 | 95 | 1019.3 |
| 20260905161041 | 67 | 66 | 0.0 | 6.0 | 0.00 | 0.00 | 0.00 | 95 | 1019.3 |
| 20260905160535 | 67 | 66 | 1.0 | 6.0 | 0.00 | 0.00 | 0.00 | 95 | 1019.3 |
| 20260905160307 | 67 | 68 | 2.0 | 6.0 | 0.00 | 0.00 | 0.00 | 96 | 1019.0 |
| 20260905155536 | 67 | 82 | 4.0 | 7.0 | 0.00 | 0.00 | 0.00 | 95 | 1018.8 |
| 20260905155037 | 67 | 54 | 4.0 | 7.0 | 0.00 | 0.00 | 0.00 | 96 | 1018.7 |
| 20260905154535 | 66 | 68 | 4.0 | 6.0 | 0.00 | 0.00 | 0.00 | 96 | 1018.5 |
| 20260905154037 | 66 | 70 | 3.0 | 6.0 | 0.00 | 0.00 | 0.00 | 96 | 1018.5 |
| 20260905153806 | 66 | 72 | 2.0 | 7.0 | 0.00 | 0.00 | 0.00 | 96 | 1018.6 |
| 20260905153308 | 66 | 96 | 3.0 | 7.0 | 0.00 | 0.00 | 0.00 | 96 | 1018.6 |
| 20260905152536 | 66 | 90 | 2.0 | 6.0 | 0.00 | 0.00 | 0.00 | 96 | 1018.6 |
| 20260905152031 | 66 | 93 | 2.0 | 6.0 | 0.00 | 0.00 | 0.00 | 96 | 1018.6 |
| 20260905151531 | 66 | 71 | 1.0 | 5.0 | 0.00 | 0.00 | 0.00 | 96 | 1018.5 |
| 20260905151031 | 66 | 101 | 1.0 | 5.0 | 0.00 | 0.00 | 0.00 | 96 | 1018.5 |
| 20260905150532 | 66 | 89 | 1.0 | 4.0 | 0.00 | 0.00 | 0.00 | 96 | 1018.5 |
| 20260905150038 | 66 | 79 | 0.0 | 3.0 | 0.00 | 0.00 | 0.00 | 96 | 1018.8 |
| 20260905150033 | 66 | 132 | 1.0 | 4.0 | 0.00 | 0.00 | 0.00 | 96 | 1018.7 |
| 20260905145032 | 66 | 128 | 1.0 | 4.0 | 0.00 | 0.00 | 0.00 | 97 | 1018.8 |
| 20260905144803 | 66 | 128 | 2.0 | 6.0 | 0.00 | 0.00 | 0.00 | 97 | 1018.7 |
| 20260905144303 | 65 | 82 | 3.0 | 6.0 | 0.00 | 0.00 | 0.00 | 97 | 1018.6 |
| 20260905143529 | 65 | 81 | 2.0 | 5.0 | 0.00 | 0.00 | 0.00 | 97 | 1018.6 |
| 20260905143026 | 65 | 112 | 2.0 | 5.0 | 0.00 | 0.00 | 0.00 | 97 | 1018.6 |
| 20260905142526 | 65 | 92 | 3.0 | 6.0 | 0.00 | 0.00 | 0.00 | 97 | 1018.6 |
| 20260905142025 | 65 | 99 | 2.0 | 6.0 | 0.00 | 0.00 | 0.00 | 97 | 1018.5 |
| 20260905141527 | 65 | 97 | 1.0 | 5.0 | 0.00 | 0.00 | 0.00 | 97 | 1018.4 |
| 20260905141023 | 65 | 65 | 2.0 | 4.0 | 0.00 | 0.00 | 0.00 | 97 | 1018.4 |
| 20260905140756 | 65 | 103 | 2.0 | 4.0 | 0.00 | 0.00 | 0.00 | 97 | 1018.3 |
| 20260905140025 | 65 | 77 | 1.0 | 4.0 | 0.00 | 0.00 | 0.00 | 97 | 1018.2 |
| 20260905135521 | 65 | 96 | 1.0 | 4.0 | 0.00 | 0.00 | 0.00 | 97 | 1018.2 |
| 20260905135021 | 65 | 90 | 2.0 | 5.0 | 0.00 | 0.00 | 0.00 | 97 | 1018.0 |
| 20260905134755 | 64 | 90 | 2.0 | 5.0 | 0.00 | 0.00 | 0.00 | 97 | 1017.9 |
| 20260905134020 | 64 | 90 | 3.0 | 6.0 | 0.00 | 0.00 | 0.00 | 97 | 1017.9 |
| 20260905133521 | 64 | 71 | 2.0 | 6.0 | 0.00 | 0.00 | 0.00 | 97 | 1017.9 |
| 20260905133253 | 64 | 60 | 3.0 | 6.0 | 0.00 | 0.00 | 0.00 | 97 | 1017.7 |
| 20260905132519 | 64 | 70 | 4.0 | 7.0 | 0.00 | 0.00 | 0.00 | 97 | 1017.6 |
| 20260905132020 | 64 | 65 | 4.0 | 7.0 | 0.00 | 0.00 | 0.00 | 98 | 1017.6 |
| 20260905131514 | 64 | 76 | 4.0 | 7.0 | 0.00 | 0.00 | 0.00 | 98 | 1017.5 |
| 20260905131008 | 64 | 69 | 4.0 | 7.0 | 0.00 | 0.00 | 0.00 | 98 | 1017.4 |
| 20260905130502 | 64 | 91 | 5.0 | 7.0 | 0.00 | 0.00 | 0.00 | 98 | 1017.4 |
| 20260905125956 | 63 | 64 | 5.0 | 9.0 | 0.00 | 0.00 | 0.00 | 98 | 1017.3 |
| 20260905125722 | 63 | 70 | 4.0 | 9.0 | 0.00 | 0.00 | 0.00 | 98 | 1017.4 |
| 20260905124944 | 63 | 75 | 4.0 | 5.0 | 0.00 | 0.00 | 0.00 | 98 | 1017.5 |
| 20260905124439 | 63 | 69 | 3.0 | 6.0 | 0.00 | 0.00 | 0.00 | 98 | 1017.5 |
| 20260905123932 | 63 | 63 | 3.0 | 5.0 | 0.00 | 0.00 | 0.00 | 98 | 1017.6 |
| 20260905123426 | 63 | 83 | 3.0 | 5.0 | 0.00 | 0.00 | 0.00 | 98 | 1017.5 |
| 20260905122920 | 63 | 54 | 3.0 | 4.0 | 0.00 | 0.00 | 0.00 | 98 | 1017.6 |
| 20260905122414 | 63 | 53 | 2.0 | 5.0 | 0.00 | 0.00 | 0.00 | 98 | 1017.6 |
| 20260905121908 | 63 | 69 | 3.0 | 5.0 | 0.00 | 0.00 | 0.00 | 98 | 1017.6 |
| 20260905121401 | 63 | 68 | 3.0 | 5.0 | 0.00 | 0.00 | 0.00 | 98 | 1017.5 |
| 20260905120856 | 63 | 46 | 3.0 | 5.0 | 0.00 | 0.00 | 0.00 | 98 | 1017.6 |
| 20260905120350 | 63 | 50 | 1.0 | 4.0 | 0.00 | 0.00 | 0.00 | 98 | 1017.7 |
| 20260905120114 | 63 | 61 | 0.0 | 3.0 | 0.00 | 0.00 | 0.00 | 98 | 1017.6 |
| 20260905115337 | 63 | 44 | 0.0 | 3.0 | 0.00 | 0.00 | 0.00 | 97 | 1017.6 |
| 20260905114831 | 63 | 47 | 1.0 | 3.0 | 0.00 | 0.00 | 0.00 | 98 | 1017.5 |
| 20260905114326 | 63 | 53 | 1.0 | 3.0 | 0.00 | 0.00 | 0.00 | 98 | 1017.5 |
| 20260905113819 | 63 | 42 | 1.0 | 4.0 | 0.00 | 0.00 | 0.00 | 97 | 1017.4 |
| 20260905113314 | 63 | 64 | 3.0 | 6.0 | 0.00 | 0.00 | 0.00 | 97 | 1017.4 |
| 20260905112808 | 63 | 58 | 4.0 | 6.0 | 0.00 | 0.00 | 0.00 | 97 | 1017.2 |
| 20260905112305 | 63 | 50 | 3.0 | 6.0 | 0.00 | 0.00 | 0.00 | 97 | 1017.1 |
| 20260905111756 | 63 | 54 | 2.0 | 4.0 | 0.00 | 0.00 | 0.00 | 97 | 1017.2 |
| 20260905111250 | 63 | 65 | 1.0 | 5.0 | 0.00 | 0.00 | 0.00 | 98 | 1017.1 |
| 20260905110744 | 63 | 51 | 1.0 | 5.0 | 0.00 | 0.00 | 0.00 | 97 | 1017.2 |
| 20260905110242 | 63 | 81 | 2.0 | 5.0 | 0.00 | 0.00 | 0.00 | 97 | 1017.2 |
| 20260905105728 | 63 | 75 | 3.0 | 7.0 | 0.00 | 0.00 | 0.00 | 97 | 1017.0 |
| 20260905105453 | 63 | 53 | 4.0 | 8.0 | 0.00 | 0.00 | 0.00 | 97 | 1016.7 |
| 20260905104716 | 63 | 59 | 4.0 | 8.0 | 0.00 | 0.00 | 0.00 | 98 | 1016.6 |
| 20260905104209 | 63 | 68 | 5.0 | 7.0 | 0.00 | 0.00 | 0.00 | 98 | 1016.5 |
| 20260905103704 | 63 | 58 | 5.0 | 7.0 | 0.00 | 0.00 | 0.00 | 98 | 1016.5 |
| 20260905103158 | 63 | 44 | 5.0 | 8.0 | 0.00 | 0.00 | 0.00 | 98 | 1016.4 |
| 20260905102652 | 63 | 58 | 5.0 | 8.0 | 0.00 | 0.00 | 0.00 | 98 | 1016.3 |
| 20260905102146 | 62 | 40 | 4.0 | 7.0 | 0.00 | 0.00 | 0.00 | 98 | 1016.2 |
| 20260905101640 | 62 | 55 | 5.0 | 9.0 | 0.00 | 0.00 | 0.00 | 98 | 1016.3 |
| 20260905101134 | 62 | 68 | 5.0 | 9.0 | 0.00 | 0.00 | 0.00 | 98 | 1016.2 |
| 20260905100627 | 62 | 63 | 5.0 | 8.0 | 0.00 | 0.00 | 0.00 | 98 | 1016.0 |
| 20260905100122 | 62 | 49 | 6.0 | 8.0 | 0.00 | 0.00 | 0.00 | 98 | 1016.1 |
| 20260905095846 | 62 | 58 | 5.0 | 8.0 | 0.00 | 0.00 | 0.00 | 98 | 1016.2 |
| 20260905095110 | 62 | 70 | 5.0 | 8.0 | 0.00 | 0.00 | 0.00 | 98 | 1016.3 |
| 20260905094604 | 62 | 69 | 5.0 | 8.0 | 0.00 | 0.00 | 0.00 | 98 | 1016.3 |
| 20260905094058 | 62 | 42 | 5.0 | 8.0 | 0.00 | 0.00 | 0.00 | 98 | 1016.3 |
| 20260905093552 | 62 | 49 | 6.0 | 8.0 | 0.00 | 0.00 | 0.00 | 98 | 1016.3 |
| 20260905093314 | 62 | 40 | 5.0 | 9.0 | 0.00 | 0.00 | 0.00 | 98 | 1016.6 |
| 20260905093150 | 62 | 44 | 5.0 | 9.0 | 0.00 | 0.00 | 0.00 | 98 | 1016.4 |
| 20260905092034 | 62 | 60 | 5.0 | 8.0 | 0.00 | 0.00 | 0.00 | 98 | 1016.7 |
| 20260905091528 | 62 | 58 | 5.0 | 10.0 | 0.00 | 0.00 | 0.00 | 98 | 1016.8 |
| 20260905091021 | 62 | 77 | 6.0 | 10.0 | 0.00 | 0.00 | 0.00 | 97 | 1016.9 |
| 20260905090515 | 62 | 60 | 6.0 | 10.0 | 0.00 | 0.00 | 0.00 | 98 | 1017.0 |
| 20260905090010 | 62 | 38 | 6.0 | 10.0 | 0.00 | 0.00 | 0.00 | 97 | 1017.0 |
| 20260905085504 | 62 | 65 | 6.0 | 10.0 | 0.00 | 0.00 | 0.00 | 97 | 1017.1 |
| 20260905084957 | 62 | 49 | 5.0 | 10.0 | 0.00 | 0.00 | 0.00 | 97 | 1017.2 |
| 20260905084451 | 62 | 64 | 5.0 | 9.0 | 0.00 | 0.00 | 0.00 | 97 | 1017.2 |
| 20260905083945 | 62 | 67 | 6.0 | 9.0 | 0.00 | 0.00 | 0.00 | 97 | 1017.2 |
| 20260905083439 | 62 | 105 | 5.0 | 8.0 | 0.00 | 0.00 | 0.00 | 97 | 1017.2 |
| 20260905082934 | 62 | 79 | 4.0 | 8.0 | 0.00 | 0.00 | 0.00 | 97 | 1017.2 |
| 20260905082427 | 62 | 68 | 4.0 | 7.0 | 0.00 | 0.00 | 0.00 | 97 | 1017.2 |
| 20260905081922 | 62 | 62 | 4.0 | 6.0 | 0.00 | 0.00 | 0.00 | 97 | 1017.3 |
| 20260905081416 | 62 | 64 | 4.0 | 7.0 | 0.00 | 0.00 | 0.00 | 97 | 1017.3 |
| 20260905080910 | 62 | 81 | 5.0 | 7.0 | 0.00 | 0.00 | 0.00 | 97 | 1017.3 |
| 20260905080404 | 62 | 102 | 5.0 | 7.0 | 0.00 | 0.00 | 0.00 | 97 | 1017.2 |
| 20260905075858 | 62 | 75 | 4.0 | 7.0 | 0.00 | 0.00 | 0.00 | 97 | 1017.1 |
| 20260905075352 | 62 | 54 | 4.0 | 7.0 | 0.00 | 0.00 | 0.00 | 97 | 1017.0 |
| 20260905074846 | 62 | 57 | 5.0 | 9.0 | 0.00 | 0.00 | 0.00 | 97 | 1017.0 |
| 20260905074610 | 62 | 91 | 6.0 | 9.0 | 0.00 | 0.00 | 0.00 | 97 | 1017.0 |
| 20260905073834 | 62 | 68 | 5.0 | 8.0 | 0.00 | 0.00 | 0.00 | 97 | 1016.9 |
| 20260905073328 | 62 | 64 | 6.0 | 9.0 | 0.00 | 0.00 | 0.00 | 97 | 1016.9 |
| 20260905072548 | 62 | 34 | 6.0 | 10.0 | 0.00 | 0.00 | 0.00 | 97 | 1016.8 |
| 20260905072042 | 63 | 65 | 5.0 | 9.0 | 0.00 | 0.00 | 0.00 | 97 | 1016.8 |
| 20260905071304 | 63 | 56 | 4.0 | 8.0 | 0.00 | 0.00 | 0.00 | 97 | 1016.9 |
| 20260905070758 | 63 | 82 | 4.0 | 6.0 | 0.00 | 0.00 | 0.00 | 97 | 1016.9 |
| 20260905070252 | 63 | 98 | 4.0 | 6.0 | 0.00 | 0.00 | 0.00 | 97 | 1016.8 |
| 20260905065746 | 63 | 74 | 3.0 | 6.0 | 0.00 | 0.00 | 0.00 | 97 | 1016.7 |
| 20260905065240 | 63 | 103 | 4.0 | 9.0 | 0.00 | 0.00 | 0.00 | 97 | 1016.8 |
| 20260905064734 | 63 | 73 | 5.0 | 9.0 | 0.00 | 0.00 | 0.00 | 97 | 1016.7 |
| 20260905064228 | 63 | 80 | 5.0 | 9.0 | 0.00 | 0.00 | 0.00 | 97 | 1016.6 |
| 20260905063728 | 63 | 72 | 6.0 | 11.0 | 0.00 | 0.00 | 0.00 | 97 | 1016.7 |
| 20260905063225 | 63 | 63 | 6.0 | 11.0 | 0.00 | 0.00 | 0.00 | 97 | 1016.7 |
| 20260905062723 | 63 | 50 | 6.0 | 10.0 | 0.00 | 0.00 | 0.00 | 97 | 1016.7 |
| 20260905062454 | 63 | 69 | 6.0 | 8.0 | 0.00 | 0.00 | 0.00 | 97 | 1016.8 |
| 20260905061956 | 63 | 72 | 5.0 | 8.0 | 0.00 | 0.00 | 0.00 | 97 | 1016.7 |
| 20260905061222 | 63 | 71 | 5.0 | 10.0 | 0.00 | 0.00 | 0.00 | 97 | 1016.7 |
| 20260905060721 | 63 | 57 | 6.0 | 10.0 | 0.00 | 0.00 | 0.00 | 97 | 1016.7 |
| 20260905060226 | 63 | 54 | 6.0 | 10.0 | 0.00 | 0.00 | 0.00 | 97 | 1016.6 |
| 20260905060221 | 63 | 68 | 7.0 | 10.0 | 0.00 | 0.00 | 0.00 | 97 | 1016.7 |
| 20260905055221 | 63 | 54 | 6.0 | 10.0 | 0.00 | 0.00 | 0.00 | 97 | 1016.7 |
| 20260905054720 | 63 | 41 | 5.0 | 9.0 | 0.00 | 0.00 | 0.00 | 97 | 1016.8 |
| 20260905054451 | 63 | 53 | 5.0 | 7.0 | 0.00 | 0.00 | 0.00 | 96 | 1016.9 |
| 20260905053720 | 63 | 53 | 5.0 | 8.0 | 0.00 | 0.00 | 0.00 | 96 | 1016.9 |
| 20260905053221 | 63 | 46 | 5.0 | 8.0 | 0.00 | 0.00 | 0.00 | 96 | 1017.0 |
| 20260905052722 | 63 | 46 | 4.0 | 7.0 | 0.00 | 0.00 | 0.00 | 97 | 1017.0 |
| 20260905052216 | 63 | 54 | 4.0 | 7.0 | 0.00 | 0.00 | 0.00 | 96 | 1017.0 |
| 20260905051716 | 63 | 41 | 5.0 | 8.0 | 0.00 | 0.00 | 0.00 | 96 | 1017.0 |
| 20260905051217 | 63 | 57 | 5.0 | 10.0 | 0.00 | 0.00 | 0.00 | 96 | 1017.0 |
| 20260905050717 | 63 | 73 | 5.0 | 10.0 | 0.00 | 0.00 | 0.00 | 96 | 1016.9 |
| 20260905050217 | 63 | 61 | 5.0 | 9.0 | 0.00 | 0.00 | 0.00 | 96 | 1017.0 |
| 20260905045947 | 63 | 63 | 5.0 | 9.0 | 0.00 | 0.00 | 0.00 | 96 | 1016.9 |
| 20260905045216 | 63 | 39 | 5.0 | 8.0 | 0.00 | 0.00 | 0.00 | 96 | 1016.9 |
| 20260905044948 | 63 | 52 | 6.0 | 9.0 | 0.00 | 0.00 | 0.00 | 96 | 1016.9 |
| 20260905044218 | 63 | 67 | 6.0 | 9.0 | 0.00 | 0.00 | 0.00 | 96 | 1016.9 |
| 20260905043712 | 63 | 55 | 5.0 | 9.0 | 0.00 | 0.00 | 0.00 | 96 | 1016.9 |
| 20260905043212 | 63 | 48 | 5.0 | 9.0 | 0.00 | 0.00 | 0.00 | 96 | 1016.8 |
| 20260905042712 | 63 | 77 | 5.0 | 8.0 | 0.00 | 0.00 | 0.00 | 96 | 1016.9 |
| 20260905042212 | 63 | 79 | 6.0 | 9.0 | 0.00 | 0.00 | 0.00 | 96 | 1016.9 |
| 20260905041714 | 63 | 81 | 6.0 | 10.0 | 0.00 | 0.00 | 0.00 | 96 | 1016.8 |
| 20260905041214 | 63 | 63 | 5.0 | 10.0 | 0.00 | 0.00 | 0.00 | 96 | 1016.8 |
| 20260905040713 | 63 | 53 | 5.0 | 10.0 | 0.00 | 0.00 | 0.00 | 96 | 1016.9 |
| 20260905040212 | 63 | 62 | 6.0 | 10.0 | 0.00 | 0.00 | 0.00 | 96 | 1016.9 |
| 20260905035713 | 63 | 71 | 6.0 | 11.0 | 0.00 | 0.00 | 0.00 | 96 | 1017.0 |
| 20260905035214 | 63 | 54 | 7.0 | 11.0 | 0.00 | 0.00 | 0.00 | 96 | 1016.8 |
| 20260905034714 | 63 | 50 | 7.0 | 12.0 | 0.00 | 0.00 | 0.00 | 96 | 1016.8 |
| 20260905034212 | 63 | 63 | 7.0 | 14.0 | 0.00 | 0.00 | 0.00 | 95 | 1016.8 |
| 20260905033713 | 63 | 49 | 7.0 | 14.0 | 0.00 | 0.00 | 0.00 | 95 | 1016.7 |
| 20260905033213 | 64 | 46 | 7.0 | 12.0 | 0.00 | 0.00 | 0.00 | 95 | 1016.8 |
| 20260905032712 | 64 | 46 | 7.0 | 12.0 | 0.00 | 0.00 | 0.00 | 95 | 1016.8 |
| 20260905032213 | 64 | 68 | 7.0 | 12.0 | 0.00 | 0.00 | 0.00 | 95 | 1016.7 |
| 20260905031944 | 64 | 89 | 5.0 | 12.0 | 0.00 | 0.00 | 0.00 | 94 | 1016.6 |
| 20260905031213 | 64 | 68 | 5.0 | 8.0 | 0.00 | 0.00 | 0.00 | 95 | 1016.6 |
| 20260905030712 | 64 | 86 | 6.0 | 10.0 | 0.00 | 0.00 | 0.00 | 94 | 1016.7 |
| 20260905030212 | 64 | 44 | 6.0 | 10.0 | 0.00 | 0.00 | 0.00 | 94 | 1016.7 |
| 20260905025943 | 65 | 59 | 6.0 | 10.0 | 0.00 | 0.00 | 0.00 | 94 | 1016.8 |
| 20260905025213 | 65 | 57 | 7.0 | 11.0 | 0.00 | 0.00 | 0.00 | 94 | 1016.7 |
| 20260905024712 | 65 | 80 | 6.0 | 11.0 | 0.00 | 0.00 | 0.00 | 93 | 1016.7 |
| 20260905024214 | 65 | 60 | 6.0 | 9.0 | 0.00 | 0.00 | 0.00 | 94 | 1016.6 |
| 20260905023945 | 65 | 69 | 6.0 | 10.0 | 0.00 | 0.00 | 0.00 | 94 | 1016.5 |
| 20260905023213 | 65 | 79 | 6.0 | 10.0 | 0.00 | 0.00 | 0.00 | 94 | 1016.5 |
| 20260905022714 | 65 | 82 | 6.0 | 9.0 | 0.00 | 0.00 | 0.00 | 93 | 1016.4 |
| 20260905022209 | 65 | 58 | 6.0 | 12.0 | 0.00 | 0.00 | 0.00 | 93 | 1016.4 |
| 20260905021702 | 65 | 56 | 7.0 | 12.0 | 0.00 | 0.00 | 0.00 | 93 | 1016.4 |
| 20260905021156 | 65 | 74 | 8.0 | 13.0 | 0.00 | 0.00 | 0.00 | 94 | 1016.2 |
| 20260905020650 | 65 | 46 | 8.0 | 13.0 | 0.00 | 0.00 | 0.00 | 94 | 1016.3 |
| 20260905020145 | 65 | 53 | 8.0 | 12.0 | 0.00 | 0.00 | 0.00 | 94 | 1016.1 |
| 20260905015646 | 65 | 70 | 7.0 | 10.0 | 0.00 | 0.00 | 0.00 | 94 | 1016.1 |
| 20260905015145 | 65 | 58 | 7.0 | 10.0 | 0.00 | 0.00 | 0.00 | 94 | 1016.1 |
| 20260905014918 | 65 | 49 | 7.0 | 10.0 | 0.00 | 0.00 | 0.00 | 93 | 1016.1 |
| 20260905014416 | 65 | 63 | 7.0 | 10.0 | 0.00 | 0.00 | 0.00 | 93 | 1016.0 |
| 20260905013642 | 66 | 53 | 7.0 | 10.0 | 0.00 | 0.00 | 0.00 | 93 | 1016.1 |
| 20260905013143 | 66 | 34 | 7.0 | 10.0 | 0.00 | 0.00 | 0.00 | 93 | 1016.1 |
| 20260905012642 | 66 | 26 | 7.0 | 11.0 | 0.00 | 0.00 | 0.00 | 93 | 1016.1 |
| 20260905012141 | 66 | 55 | 7.0 | 11.0 | 0.00 | 0.00 | 0.00 | 92 | 1016.0 |
| 20260905011640 | 66 | 44 | 8.0 | 12.0 | 0.00 | 0.00 | 0.00 | 93 | 1015.8 |
| 20260905011140 | 66 | 13 | 7.0 | 12.0 | 0.00 | 0.00 | 0.00 | 92 | 1015.7 |
| 20260905010640 | 67 | 21 | 6.0 | 10.0 | 0.00 | 0.00 | 0.00 | 93 | 1015.6 |
| 20260905010138 | 67 | 58 | 7.0 | 10.0 | 0.00 | 0.00 | 0.00 | 91 | 1015.6 |
| 20260905005638 | 67 | 56 | 8.0 | 10.0 | 0.00 | 0.00 | 0.00 | 91 | 1015.6 |
| 20260905005138 | 67 | 53 | 7.0 | 10.0 | 0.00 | 0.00 | 0.00 | 92 | 1015.6 |
| 20260905004912 | 67 | 63 | 8.0 | 12.0 | 0.00 | 0.00 | 0.00 | 91 | 1015.4 |
| 20260905004637 | 67 | 57 | 7.0 | 12.0 | 0.00 | 0.00 | 0.00 | 91 | 1015.6 |
| 20260905003636 | 67 | 56 | 7.0 | 12.0 | 0.00 | 0.00 | 0.00 | 90 | 1015.5 |
| 20260905003136 | 67 | 41 | 7.0 | 12.0 | 0.00 | 0.00 | 0.00 | 90 | 1015.4 |
| 20260905002636 | 68 | 44 | 8.0 | 13.0 | 0.00 | 0.00 | 0.00 | 91 | 1015.4 |
| 20260905002136 | 68 | 68 | 8.0 | 13.0 | 0.00 | 0.00 | 0.00 | 90 | 1015.5 |
| 20260905001636 | 68 | 57 | 8.0 | 12.0 | 0.00 | 0.00 | 0.00 | 90 | 1015.5 |
| 20260905001136 | 68 | 18 | 8.0 | 11.0 | 0.00 | 0.00 | 0.00 | 90 | 1015.5 |
| 20260905000908 | 68 | 57 | 8.0 | 11.0 | 0.00 | 0.00 | 0.00 | 90 | 1015.5 |
| 20260905000136 | 68 | 56 | 9.0 | 13.0 | 0.00 | 0.00 | 0.00 | 89 | 1015.5 |
| 20260904235906 | 68 | 57 | 9.0 | 13.0 | 0.00 | 0.00 | 0.00 | 89 | 1015.6 |
| 20260904235137 | 68 | 37 | 9.0 | 13.0 | 0.00 | 0.00 | 0.00 | 89 | 1015.6 |
| 20260904234909 | 68 | 75 | 8.0 | 13.0 | 0.00 | 0.00 | 0.00 | 89 | 1015.5 |